TimeEDT,TemperatureF,Dew PointF,Humidity,Sea Level PressureIn,VisibilityMPH,Wind Direction,Wind SpeedMPH,Gust SpeedMPH,PrecipitationIn,Events,Conditions,WindDirDegrees,DateUTC
12:54 AM,77.0,71.1,82,29.89,8.0,Variable,3.5,-,N/A,,Clear,0,2013-08-29 04:54:00
1:54 AM,77.0,71.1,82,29.88,8.0,West,3.5,-,N/A,,Clear,260,2013-08-29 05:54:00
2:54 AM,75.9,70.0,82,29.88,8.0,WSW,3.5,-,N/A,,Partly Cloudy,250,2013-08-29 06:54:00
3:54 AM,75.9,70.0,82,29.88,8.0,West,3.5,-,N/A,,Mostly Cloudy,260,2013-08-29 07:54:00
4:54 AM,75.0,70.0,84,29.89,8.0,Calm,Calm,-,N/A,,Scattered Clouds,0,2013-08-29 08:54:00
5:54 AM,73.0,70.0,90,29.89,6.0,Calm,Calm,-,N/A,,Mostly Cloudy,0,2013-08-29 09:54:00
6:54 AM,73.9,69.1,85,29.91,6.0,Calm,Calm,-,N/A,,Haze,0,2013-08-29 10:54:00
7:54 AM,75.0,69.1,82,29.92,6.0,West,3.5,-,N/A,,Haze,280,2013-08-29 11:54:00
8:54 AM,79.0,69.1,72,29.94,8.0,NW,5.8,-,N/A,,Mostly Cloudy,310,2013-08-29 12:54:00
9:54 AM,82.0,70.0,67,29.94,10.0,NW,6.9,-,N/A,,Scattered Clouds,310,2013-08-29 13:54:00
10:54 AM,84.0,70.0,63,29.95,10.0,Variable,4.6,-,N/A,,Clear,0,2013-08-29 14:54:00
11:54 AM,84.0,71.1,65,29.96,10.0,Variable,6.9,16.1,N/A,,Mostly Cloudy,0,2013-08-29 15:54:00
12:50 PM,84.2,71.6,66,29.99,10.0,ENE,10.4,16.1,N/A,,Mostly Cloudy,60,2013-08-29 16:50:00
12:54 PM,84.0,71.1,65,29.95,10.0,NNE,15.0,19.6,N/A,,Mostly Cloudy,30,2013-08-29 16:54:00
1:03 PM,84.2,71.6,66,29.99,10.0,ENE,10.4,-,N/A,,Scattered Clouds,70,2013-08-29 17:03:00
1:54 PM,84.0,70.0,63,29.95,10.0,NE,8.1,-,N/A,,Partly Cloudy,50,2013-08-29 17:54:00
2:54 PM,84.9,70.0,61,29.94,10.0,East,8.1,-,N/A,,Partly Cloudy,80,2013-08-29 18:54:00
3:54 PM,86.0,70.0,59,29.93,10.0,East,8.1,-,N/A,,Partly Cloudy,90,2013-08-29 19:54:00
4:54 PM,86.0,70.0,59,29.93,10.0,East,6.9,-,N/A,,Scattered Clouds,90,2013-08-29 20:54:00
5:54 PM,82.9,70.0,65,29.94,10.0,East,6.9,-,N/A,,Scattered Clouds,90,2013-08-29 21:54:00
6:54 PM,81.0,69.1,67,29.94,10.0,East,5.8,-,N/A,,Scattered Clouds,80,2013-08-29 22:54:00
7:54 PM,79.0,70.0,74,29.98,10.0,ENE,3.5,-,N/A,,Partly Cloudy,60,2013-08-29 23:54:00
8:54 PM,77.0,69.1,76,29.99,10.0,Variable,3.5,-,N/A,,Scattered Clouds,0,2013-08-30 00:54:00
9:54 PM,75.9,69.1,79,30.00,10.0,East,4.6,-,N/A,,Clear,90,2013-08-30 01:54:00
10:54 PM,75.0,69.1,82,30.01,10.0,NE,6.9,-,N/A,,Clear,50,2013-08-30 02:54:00
11:54 PM,73.9,69.1,85,30.02,10.0,ENE,4.6,-,N/A,,Clear,60,2013-08-30 03:54:00